STARLINK-4606 (53632 NORAD) Tracking and Keplerian Element Data

This shows tracking and keplerian element data for the satellite.

Feedback or suggestion? Click here.




ElementValue
Catalog53632
NameSTARLINK-4606
Epoch Orbit130
Epoch Day324.91667824
Epoch Year2022
RAAN232.788
Inclination53.2176
Eccentricity0.0001411
Argument of Perigee56.8249
Mean Anonmoly246.6526
Mean Motion15.22161313
Decay Rate-0.01148465
L11 53632U 22104AW 22324.91667824 -.01148465 00000+0 -53583-1 0 9999
L22 53632 53.2176 232.7880 0001411 56.8249 246.6526 15.22161313 1306



Live tracking and technical data element details for STARLINK-4606 (NORAD 53632). STARLINK-4606 can be tracked NOW for your location showing map with azimuth and elevation plus other details from your city location.







IsCatalogInMostPopularTable: catalog: 53632, numindb: 2
Update: records affected: 1



GetName: 53632 STARLINK-4606

Hit Count: updated at: Tue, 29 Nov 2022 02:16:36 GMT